Forside
METAR-TAF:

METAR-TAF

Lufthavne :

Chariton Municipal Airport

Chariton, Iowa, USA

Breddekreds: 41-02N, længdekreds: 093-22W, højde: 320 m

Aktuelle vejr

Denne rapport blev lavet for 7 minutter siden, kl. 06:55 UTC
Vind 5 kt fra sydvest
Temperatur 4°C
Fugtighed 75%
Tryk 1016 hPa
Sigt: 16.1 km
skyfri

METAR: KCNC 290655Z AUTO 22005KT 10SM CLR 04/00 A2999 RMK AO2

Tid: 01:02 (07:02 UTC)


TAF: fraværende

Vejrobservationer og prognoser fra mere end 4000 lufthavne (METAR og TAF).

De gule og røde prikker repræsenterer de meteorologiske stationer.

Flyt musen over at se navnet på stationen.

Så klik over at se vejr observationer og prognoser.

At skifte det kort: Klik på de grønne knapper med et sort kors for at zoome ind; på den grønne knap med en bindestreg for at zoome ud; eller på de grønne pile for tilstødende kort.


METAR-TAF: